Volver al catálogo

NOAA 16 DEB

ActivoSSO
NORAD 41398·DEBRIS·🇺🇸 United States

Lanzado Sep 21, 2000 desde Vandenberg Space Force Base

Loading…

Próximos Pases (próximas 24 horas)

TLE

ActualizadoSource: Space-Track

Época: Sep 14, 2026, 14:18 UTC

1 41398U 00055KB  26257.59587369  .00003473  00000-0  11332-2 0  9998
2 41398  98.8298  23.5319 0012525 313.9074  46.1078 14.39258588547113

Sigue NOAA 16 DEB en tiempo real con AllMySat

Download on the App Store